Regional Weather Roundup
Issued by NWS

Home | Current Version | Previous Version | Text Only | Print | Product List | Glossary Off
Versions: 1 2 3 4 5 6 7 8 9 10 11 12 13 14 15 16 17 18 19 20 21 22 23 24 25 26 27 28 29 30 31 32 33 34 35 36 37 38 39 40 41 42 43 44 45 46 47 48 49 50

000
ASUS43 KBIS 180610
RWRND

NORTH DAKOTA REGIONAL WEATHER ROUNDUP
NATIONAL WEATHER SERVICE BISMARCK ND
100 AM CDT THU SEP 18 2014

NOTE: "FAIR" INDICATES FEW OR NO CLOUDS BELOW 12,000 FEET WITH NO
SIGNIFICANT WEATHER AND/OR OBSTRUCTIONS TO VISIBILITY.


NDZ001>003-009>011-017-180700-
NORTHWEST NORTH DAKOTA

CITY           SKY/WX    TMP DP  RH WIND       PRES   REMARKS
WILLISTON      CLEAR     61  47  59 SE12      29.89F
6HR MIN TEMP:  54; 6HR MAX TEMP:  73;

MINOT          CLEAR     49  46  90 E10       29.97F
MINOT AFB      CLEAR     47  46  99 SE10      29.97S
$$

NDZ018>021-031>035-040>046-180700-
SOUTHWEST NORTH DAKOTA

CITY           SKY/WX    TMP DP  RH WIND       PRES   REMARKS
BISMARCK       CLEAR     50  47  89 NE9       30.00R
6HR MIN TEMP:  50; 6HR MAX TEMP:  69;

DICKINSON      PTCLDY    55  47  74 SE15      29.92F
GARRISON         N/A     53  51  93 SE7       29.97S
6HR MIN TEMP:  53; 6HR MAX TEMP:  69;

HETTINGER ARPT CLEAR     53  47  79 SE9       29.96F
$$

NDZ004>008-012>016-024-026-027-054-180700-
NORTHEAST NORTH DAKOTA

CITY           SKY/WX    TMP DP  RH WIND       PRES   REMARKS
GRAND FORKS    CLEAR     46  42  86 NE5       30.04S
GRND FRKS AFB  CLEAR     39  39  99 N3        30.05F
DEVILS LAKE    CLEAR     46  39  76 SE8       30.01F
$$

NDZ022-023-025-028>030-036>039-047>053-180700-
SOUTHEAST NORTH DAKOTA

CITY           SKY/WX    TMP DP  RH WIND       PRES   REMARKS
FARGO          CLEAR     48  45  89 NE5       30.01S
6HR MIN TEMP:  48; 6HR MAX TEMP:  68;

JAMESTOWN      CLEAR     48  45  89 E6        30.01R
$$



USA.gov is the U.S. government's official web portal to all federal, state and local government web resources and services.